www.pogodaiklimat.ru

Погода и климат >> Архив погоды >> Дания >> Бранделев


ПОГОДА в Бранделеве

  • Прогноз погоды в Бранделеве
  • Монитор погоды в Бранделеве

АРХИВ ПОГОДЫ в Бранделеве

Время (UTC), дата Ветер
(напр.,м/с)
 
Видим.   Явления Облачность Т
(С)
Тd
(С)
f
(%)
Тe
(С)
Тes
(С)
Комфортность P
(гПа)
Po
(гПа)
Тmin
(С)
Tmax
(С)
R
(мм)
R24
(мм)
S
(см)
10 10.08 ЮЗ 7 14 км н/о +22.1 +18.3 79 +27 +27 душно 1005.6 1000.2
11 10.08 ЮЗ 6 20 км н/о +22.7 +17.8 74 +28 +28 душно 1005.6 1000.2
12 10.08 ЮЗ 7
{12}
27 км н/о +22.0 +16.6 71 +26 +26 душно 1006.0 1000.6
13 10.08 ЮЗ 8 30 км н/о +23.3 +15.7 62 +28 +28 душно 1006.1 1000.7
14 10.08 З 8 40 км н/о +23.8 +15.1 58 +27 +27 жарко 1006.5 1001.2
15 10.08 З 7
{17}
17 км н/о +18.1 +14.9 82 +17 +17 1007.6 1002.2 0.4
16 10.08 З 6 14 км н/о +18.8 +16.0 84 +19 +19 1007.8 1002.3
17 10.08 ЮЗ 7 30 км н/о +20.3 +15.0 72 +23 +23 комфорт 1007.5 1002.1
18 10.08 ЮЗ 4
{17}
25 км н/о +20.0 +14.7 72 +22 +22 комфорт 1008.0 1002.6 +17.8 +24.2
19 10.08 ЮЗ 4 24 км н/о +19.8 +14.7 72 +22 +22 комфорт 1008.6 1003.2
20 10.08 ЮЗ 3 24 км н/о +17.2 +15.5 90 +17 +17 1009.3 1003.9 2
21 10.08 ЮЗ 4 27 км н/о +17.8 +15.8 88 +18 +18 1009.1 1003.7 2
22 10.08 ЮЗ 4 30 км н/о +17.9 +15.4 85 +18 +18 1009.0 1003.5
23 10.08 ЮЗ 6 40 км н/о +19.1 +14.3 74 +20 +20 1008.8 1003.4
00 11.08 ЮЗ 8-13
{13}
30 км н/о +18.9 +13.1 69 +19 +19 1008.6 1003.2
01 11.08 ЮЗ 7 29 км н/о +18.5 +12.9 70 +18 +18 1008.8 1003.4
02 11.08 ЮЗ 7 27 км н/о +18.4 +13.0 71 +18 +18 1008.8 1003.4
03 11.08 ЮЗ 7
{14}
21 км н/о +17.9 +13.2 74 +17 +17 1008.9 1003.5
04 11.08 ЮЗ 7 25 км н/о +17.4 +12.7 74 +16 +16 1009.1 1003.7
05 11.08 ЮЗ 7 26 км н/о +17.6 +12.6 72 +17 +17 1009.7 1004.2
06 11.08 ЮЗ 8-13
{14}
20 км н/о +17.9 +12.9 73 +17 +17 1010.1 1004.6 +17.2 +20.1
07 11.08 ЮЗ 8 17 км н/о +18.5 +12.9 70 +18 +18 1010.1 1004.7
08 11.08 ЮЗ 9 24 км н/о +19.1 +12.7 66 +19 +19 1010.8 1005.3
09 11.08 ЮЗ 8
{15}
24 км н/о +19.9 +13.3 66 +21 +21 комфорт 1011.3 1005.8
10 11.08 ЮЗ 9 27 км н/о +20.0 +12.7 63 +21 +21 комфорт 1011.6 1006.2
11 11.08 ЮЗ 10 27 км н/о +20.5 +12.2 59 +22 +22 комфорт 1011.8 1006.4
12 11.08 ЮЗ 9
{15}
30 км н/о +20.9 +11.5 55 +22 +22 комфорт 1011.5 1006.1
13 11.08 ЮЗ 9 30 км н/о +21.8 +11.2 51 +24 +24 комфорт 1011.7 1006.3
14 11.08 З 8 30 км н/о +21.8 +11.5 52 +24 +24 комфорт 1012.0 1006.7
15 11.08 ЮЗ 8
{15}
30 км н/о +20.9 +10.8 52 +22 +22 комфорт 1012.0 1006.6
16 11.08 З 7 35 км н/о +21.6 +10.0 48 +23 +23 комфорт 1011.9 1006.5
17 11.08 ЮЗ 5 35 км н/о +20.8 +10.7 52 +23 +23 комфорт 1011.9 1006.5
18 11.08 ЮЗ 3
{15}
30 км н/о +19.7 +11.9 61 +21 +21 комфорт 1011.9 1006.5 +17.8 +22.4
19 11.08 ЮЗ 2 27 км н/о +18.2 +12.2 68 +19 +19 1011.9 1006.4
20 11.08 штиль 0 28 км н/о +16.6 +12.2 75 +17 +17 1012.1 1006.6
21 11.08 штиль 0 19 км н/о +15.0 +11.9 82 +15 +15 1012.4 1006.9
22 11.08 штиль 0 20 км н/о +15.0 +12.4 84 +15 +15 1012.4 1006.9
23 11.08 ЮВ 1 20 км н/о +14.9 +12.7 87 +16 +16 1012.3 1006.7
00 12.08 ЮВ 2 19 км н/о +15.3 +12.9 86 +15 +15 1012.0 1006.5
01 12.08 ЮВ 1 20 км н/о +15.1 +13.1 88 +16 +16 1011.8 1006.3
02 12.08 Ю 1 19 км н/о +15.4 +13.5 88 +16 +16 1011.7 1006.2
03 12.08 Ю 2 19 км н/о +15.3 +13.4 88 +15 +15 1011.2 1005.7
04 12.08 Ю 1 18 км н/о +15.8 +14.1 90 +16 +16 1011.1 1005.6
05 12.08 Ю 2 17 км н/о +16.3 +14.5 89 +17 +17 1011.0 1005.5
06 12.08 ЮЗ 5 27 км н/о +18.3 +13.2 72 +18 +18 1011.0 1005.6 +14.6 +19.8
07 12.08 ЮЗ 6 28 км н/о +18.4 +12.7 69 +18 +18 1011.2 1005.8
08 12.08 ЮЗ 6 25 км н/о +19.4 +13.4 68 +20 +20 1011.2 1005.8
09 12.08 ЮЗ 8 30 км н/о +19.6 +12.8 65 +21 +21 комфорт 1011.6 1006.1
10 12.08 ЮЗ 7 28 км н/о +20.0 +12.9 64 +21 +21 комфорт 1011.4 1005.9
11 12.08 ЮЗ 8 25 км н/о +20.5 +13.7 65 +22 +22 комфорт 1011.4 1006.0
12 12.08 ЮЗ 8
{13}
25 км н/о +20.5 +13.2 63 +22 +22 комфорт 1011.7 1006.3
13 12.08 ЮЗ 8 30 км н/о +21.5 +12.8 58 +24 +24 комфорт 1011.6 1006.3
14 12.08 З 4 35 км н/о +19.3 +15.1 77 +21 +21 комфорт 1011.6 1006.2 0.9
15 12.08 З 7 45 км н/о +19.7 +12.7 64 +21 +21 комфорт 1011.5 1006.1 0.9
16 12.08 З 6 50 км н/о +19.8 +12.3 62 +21 +21 комфорт 1011.4 1006.0
17 12.08 З 5 50 км н/о +19.9 +11.8 60 +21 +21 комфорт 1011.3 1005.9
18 12.08 З 5 50 км н/о +18.9 +9.1 53 +19 +19 1011.5 1006.1 +16.4 +21.9
19 12.08 З 2 50 км н/о +17.2 +9.7 61 +18 +18 1011.8 1006.3
20 12.08 З 2 45 км н/о +16.4 +10.2 67 +17 +17 1012.1 1006.6
21 12.08 штиль 0 30 км н/о +12.8 +9.8 82 +12 +12 1012.0 1006.5
22 12.08 З 1 40 км н/о +14.8 +10.2 74 +15 +15 1012.0 1006.4
23 12.08 З 2 35 км н/о +12.7 +10.3 85 +12 +12 1011.9 1006.3
00 13.08 СЗ 1 35 км н/о +12.1 +10.5 90 +12 +12 1011.5 1005.9
01 13.08 З 1 27 км н/о +13.4 +10.7 84 +14 +14 1011.6 1006.0
02 13.08 Ю 1 27 км н/о +12.2 +10.6 90 +12 +12 1011.0 1005.5
03 13.08 ЮЗ 5 11 км дождь н/о +14.4 +12.6 89 +13 +13 1011.2 1005.7 2
04 13.08 ЮЗ 2 19 км слаб. дождь н/о +14.1 +13.2 94 +13 +13 1010.7 1005.2 2
05 13.08 Ю 2 40 км в посл. час морось {дождь} н/о +14.1 +12.7 91 +14 +14 1010.4 1004.9 0.1
06 13.08 ЮЗ 3 23 км {дождь, морось} н/о +15.8 +13.3 85 +15 +15 1010.1 1004.6 +11.1 +18.9 2
07 13.08 ЮЗ 5 40 км н/о +16.2 +13.2 82 +15 +15 1010.0 1004.5
08 13.08 ЮЗ 4 5000 м сильн. ливневой дождь н/о +13.8 +12.8 94 +12 +12 1010.3 1004.8 5
09 13.08 З 4 40 км {ливн. осадки} н/о +15.9 +12.8 82 +15 +15 1010.5 1005.0 5
10 13.08 З 3 5000 м н/о +15.0 +12.4 84 +14 +14 1010.8 1005.3 2
11 13.08 СЗ 3 29 км н/о +15.2 +13.0 87 +15 +15 1011.3 1005.8 1
12 13.08 З 4
{10}
40 км {ливн. осадки} н/о +15.8 +13.3 85 +15 +15 1011.6 1006.1 3
13 13.08 З 6 40 км н/о +15.4 +11.3 77 +14 +14 1011.8 1006.3
14 13.08 З 5 45 км н/о +16.1 +11.4 74 +15 +15 1012.1 1006.6
15 13.08 З 4 50 км н/о +16.2 +9.5 64 +15 +15 1012.4 1006.9
16 13.08 З 6 50 км н/о +16.5 +10.0 65 +15 +15 1012.6 1007.1
17 13.08 З 3 50 км н/о +15.3 +9.3 67 +15 +15 1012.8 1007.3
18 13.08 З 6 50 км н/о +15.5 +11.1 75 +14 +14 1012.7 1007.2 +13.8 +17.2
19 13.08 З 4 50 км н/о +15.3 +9.1 66 +14 +14 1013.1 1007.6
20 13.08 З 3 50 км н/о +14.1 +8.6 69 +13 +13 1013.7 1008.2
21 13.08 З 3 50 км н/о +13.9 +8.2 68 +13 +13 1013.8 1008.3
22 13.08 З 3 50 км н/о +13.1 +8.3 73 +12 +12 1013.8 1008.3
23 13.08 З 3 50 км н/о +12.9 +8.3 74 +12 +12 1013.9 1008.3
00 14.08 З 2 50 км н/о +12.3 +8.5 78 +11 +11 1014.0 1008.5
01 14.08 З 2 50 км н/о +12.3 +8.5 78 +12 +12 1014.0 1008.4
02 14.08 ЮЗ 1 45 км в посл. час дождь {ливн. осадки} н/о +9.9 +8.3 90 +9 +9 1014.1 1008.5
03 14.08 штиль 0 45 км {ливн. осадки, дождь} н/о +9.6 +7.5 87 +9 +9 1013.9 1008.3 0.0
04 14.08 штиль 0 21 км в посл. час дождь {ливн. осадки} н/о +9.4 +8.4 93 +9 +9 1013.8 1008.2
05 14.08 ЮВ 1 18 км н/о +10.2 +9.3 94 +10 +10 1013.9 1008.3
06 14.08 ЮВ 1 35 км слаб. ливневой дождь н/о +12.4 +10.7 89 +13 +13 1013.9 1008.3 +8.7 +15.6 0.1
07 14.08 СЗ 3 8000 м сильн. ливневой дождь н/о +12.9 +10.8 87 +12 +12 1014.2 1008.6 5
08 14.08 З 5 50 км {ливн. осадки} н/о +15.2 +10.2 72 +14 +14 1014.1 1008.6
09 14.08 З 5 40 км {ливн. осадки} н/о +15.7 +10.5 71 +15 +15 1014.2 1008.7 5
10 14.08 З 5 45 км н/о +17.1 +10.1 63 +16 +16 1014.0 1008.6
11 14.08 ЮЗ 7 40 км н/о +17.3 +10.0 62 +16 +16 1014.1 1008.6
12 14.08 З 8 40 км {ливн. осадки} н/о +18.0 +9.5 58 +17 +17 1014.2 1008.7
13 14.08 З 5 40 км н/о +16.9 +8.0 56 +16 +16 1014.6 1009.1
14 14.08 З 6 45 км н/о +18.1 +9.9 59 +18 +18 1014.4 1009.0
15 14.08 З 7
{14}
50 км н/о +17.9 +9.2 57 +17 +17 1014.3 1008.9
16 14.08 З 6 45 км н/о +17.9 +10.2 61 +17 +17 1014.3 1008.8
17 14.08 З 4 50 км н/о +16.9 +9.1 60 +17 +17 1014.3 1008.9
18 14.08 ЮЗ 4
{14}
50 км н/о +16.5 +9.1 62 +16 +16 1014.2 1008.7 +12.4 +18.4
19 14.08 ЮЗ 3 50 км н/о +15.4 +9.1 66 +15 +15 1014.3 1008.7
20 14.08 З 3 50 км н/о +15.2 +9.1 67 +15 +15 1014.3 1008.8
21 14.08 З 3 50 км н/о +15.2 +9.5 69 +15 +15 1014.2 1008.7
22 14.08 З 2 50 км н/о +15.3 +9.1 66 +15 +15 1014.1 1008.6
23 14.08 З 2 50 км н/о +15.2 +9.6 69 +15 +15 1014.1 1008.6
00 15.08 Ю 2 40 км слаб. ливневой дождь н/о +14.4 +10.8 79 +14 +14 1013.8 1008.3 0.0
01 15.08 Ю 2 50 км в посл. час дождь {ливн. осадки} н/о +14.3 +11.2 82 +14 +14 1013.1 1007.6
02 15.08 ЮВ 3 50 км н/о +13.9 +11.4 85 +13 +13 1012.4 1006.9
03 15.08 ЮВ 3 50 км {ливн. осадки} н/о +13.9 +10.9 82 +13 +13 1011.7 1006.2 0.0
04 15.08 ЮВ 3 50 км н/о +14.3 +11.1 81 +13 +13 1011.3 1005.7
05 15.08 Ю 3 50 км н/о +15.3 +10.9 75 +15 +15 1011.0 1005.5
06 15.08 Ю 4 50 км {ливн. осадки} н/о +16.3 +11.0 71 +16 +16 1010.6 1005.1 +13.7 +16.6
07 15.08 Ю 4 40 км н/о +16.3 +11.1 71 +16 +16 1010.5 1005.0
08 15.08 Ю 5 50 км н/о +16.4 +9.9 65 +16 +16 1010.0 1004.5
09 15.08 Ю 7 45 км н/о +16.8 +9.9 64 +16 +16 1009.5 1004.1
10 15.08 ЮВ 7 50 км н/о +16.0 +10.9 72 +14 +14 1008.8 1003.4
11 15.08 ЮВ 6 14 км слаб. ливневой дождь {морось} н/о +14.2 +12.5 90 +12 +12 1008.7 1003.2
12 15.08 ЮВ 6
{11}
9000 м слаб. ливневой дождь {морось} н/о +14.0 +12.9 93 +12 +12 1008.5 1003.0 0.1
13 15.08 Ю 5 17 км {ливн. осадки, морось} н/о +15.0 +14.0 94 +14 +14 1008.1 1002.6 0.3
14 15.08 Ю 4 10 км н/о +15.3 +14.3 94 +14 +14 1007.9 1002.4
15 15.08 Ю 4 9000 м {ливн. осадки, морось} н/о +15.6 +14.5 93 +15 +15 1007.8 1002.3 0.3
16 15.08 Ю 4 8000 м н/о +15.4 +14.6 95 +14 +14 1007.7 1002.2
17 15.08 Ю 4 13 км н/о +16.3 +15.0 92 +16 +16 1007.6 1002.2
18 15.08 Ю 4 14 км {ливн. осадки, морось} н/о +16.3 +15.0 92 +16 +16 1007.7 1002.2 +13.7 +17.5
19 15.08 Ю 4 6000 м н/о +16.1 +15.3 95 +15 +15 1007.9 1002.4 1
20 15.08 Ю 3 8000 м н/о +16.5 +15.7 95 +16 +16 1008.0 1002.5
21 15.08 Ю 3 8000 м н/о +16.6 +15.9 96 +16 +16 1007.9 1002.4 1
22 15.08 З 5 27 км н/о +16.7 +15.4 92 +16 +16 1008.5 1003.0
23 15.08 З 5 12 км н/о +16.7 +15.2 91 +16 +16 1008.7 1003.2
00 16.08 З 4 24 км н/о +16.3 +14.8 91 +16 +16 1009.1 1003.6
01 16.08 З 5 25 км н/о +16.2 +14.4 89 +15 +15 1009.4 1003.9
02 16.08 З 5 21 км н/о +15.9 +14.0 88 +15 +15 1009.8 1004.3
03 16.08 З 3 18 км н/о +15.5 +14.1 91 +15 +15 1010.2 1004.7
04 16.08 З 3 19 км н/о +14.9 +13.6 92 +14 +14 1010.4 1004.9
05 16.08 З 2 23 км н/о +15.8 +14.3 91 +16 +16 1011.0 1005.5
06 16.08 З 3 28 км н/о +16.8 +14.2 85 +17 +17 1011.2 1005.7 +14.7 +17.1
07 16.08 З 4 21 км н/о +16.8 +14.7 87 +16 +16 1011.6 1006.1
08 16.08 З 4 27 км н/о +16.7 +14.8 89 +16 +16 1012.0 1006.5 1
09 16.08 З 6 30 км н/о +17.8 +14.8 83 +17 +17 1012.1 1006.6 2
10 16.08 З 4 50 км н/о +17.3 +13.1 76 +17 +17 1012.5 1007.0
11 16.08 СЗ 4 45 км н/о +17.9 +13.7 76 +18 +18 1012.8 1007.4
12 16.08 З 4 35 км н/о +19.1 +13.0 68 +20 +20 1012.9 1007.5
13 16.08 ЮЗ 6 40 км н/о +19.2 +12.6 66 +20 +20 1013.1 1007.7
14 16.08 З 7 30 км н/о +19.0 +13.8 72 +20 +20 1013.2 1007.7
15 16.08 З 5 40 км н/о +18.8 +11.5 63 +19 +19 1013.2 1007.7
16 16.08 З 5 35 км н/о +18.4 +11.2 63 +18 +18 1013.2 1007.7
17 16.08 З 5 35 км н/о +18.3 +10.2 59 +18 +18 1013.2 1007.8
18 16.08 З 4 45 км н/о +17.0 +9.3 60 +17 +17 1013.4 1007.9 +16.0 +19.8
19 16.08 ЮЗ 2 45 км н/о +15.8 +10.1 69 +16 +16 1013.6 1008.1
20 16.08 Ю 1 40 км н/о +15.3 +10.5 73 +16 +16 1013.5 1007.9 0.1
21 16.08 ЮВ 2 45 км н/о +13.9 +10.8 82 +14 +14 1013.3 1007.7 0.1
22 16.08 ЮВ 3 45 км н/о +13.8 +10.6 81 +13 +13 1013.0 1007.5
23 16.08 ЮВ 3 50 км н/о +13.4 +10.4 82 +12 +12 1012.3 1006.7
00 17.08 ЮВ 3 45 км н/о +14.0 +11.5 85 +13 +13 1011.7 1006.2
01 17.08 ЮВ 3 40 км н/о +15.1 +12.6 85 +14 +14 1010.9 1005.4
02 17.08 ЮВ 4 50 км н/о +15.7 +13.0 84 +15 +15 1010.1 1004.6
03 17.08 Ю 5 50 км н/о +16.9 +13.1 78 +16 +16 1009.4 1003.9
04 17.08 Ю 3 35 км н/о +16.3 +13.2 82 +16 +16 1009.2 1003.8
05 17.08 Ю 4 15 км н/о +15.7 +13.5 87 +15 +15 1009.1 1003.6
06 17.08 Ю 3 15 км слаб. дождь н/о +15.1 +13.6 91 +14 +14 1008.8 1003.3 +13.0 +17.1 1
07 17.08 Ю 4 11 км слаб. дождь н/о +15.1 +13.9 93 +14 +14 1008.5 1003.0 1
08 17.08 Ю 5 15 км {дождь} н/о +15.3 +13.9 91 +14 +14 1008.2 1002.7 0.1
09 17.08 Ю 5 21 км {дождь} н/о +15.9 +14.1 89 +15 +15 1007.8 1002.3 2
10 17.08 Ю 4 7000 м н/о +16.3 +14.8 91 +16 +16 1007.6 1002.1

 

Местоположение метеостанции Бранделев (Дания): широта 55.21 долгота 11.86 высота над уровнем моря 46 м.

В архиве по умолчанию представлена погода в Бранделеве за последнюю неделю. Архивные данные за месяц целиком и за предыдущие месяцы, начиная с января 2011 года, Вы можете получить, выбрав интересующий диапазон дат из раскрывающегося списка и нажав кнопку "Ввод!".


*Определитесь, кто Вы:
робот инопланетянин человек

Внимание! Время в таблицах - всемирное. Для получения местного времени необходимо прибавить поправку, которая равна 1 ч.

Смотрите также архив погоды в соседних городах и на ближайших метеорологических станциях:

Погода в Кёге (Дания) (28 км)
Погода в Флаккебэрге (Дания) (32 км)
Погода в Тысофте (Дания) (34 км)
Погода в Виндебаеке (Дания) (42 км)
Погода в Роскилле (Дания) (45 км)
Погода в Омо (Дания) (47 км)
Погода в Абеде (Дания) (54 км)
Погода в Хольбеке (Дания) (60 км)
Погода в Фальстербу АМС (Швеция) (64 км)
Погода в Фальстербу (Швеция) (64 км)

Пояснения к столбцам:

Ветер - указаны скорость ветра в м/с - средняя за 10 мин, порывы в срок и между сроками (в фигурных скобках) и направление, откуда дует ветер: С - северный, СВ - северо-восточный, В - восточный, ЮВ - юго-восточный, Ю - южный, ЮЗ - юго-западный, З - западный, СЗ - северо-западный.
Видимость - горизонтальная дальность видимости в метрах или километрах. При видимости от 1 до 10 км при отсутствии осадков обычно наблюдается дымка, при ухудшении видимости до 1 км и менее - туман. В сухую погоду видимость может ухудшаться дымом, пылью или мглою.
Явления - указаны атмосферные явления, наблюдавшиеся в срок или в последний час перед сроком; фигурными скобками обозначены явления, наблюдавшиеся между сроками (за 1-3 часа до срока); квадратными скобками обозначены град или гололедные отложения с указанием их диаметра в мм.
Облачность - указаны через наклонную черту общая и нижняя облачность в баллах и высота нижней границы облаков в метрах; квадратными скобками обозначены формы облаков: Ci - перистые, Cs - перисто-слоистые, Cc - перисто-кучевые, Ac - высококучевые, As - высокослоистые, Sc - слоисто-кучевые, Ns - слоисто-дождевые, Cu - кучевые, Cb - кучево-дождевые. Подробнее классификацию облаков см. в Атласе облаков (PDF).
T - Температура воздуха - температура, измеренная на высоте 2 м над землей.
Td - Температура точки росы - температура, при понижении до которой содержащийся в воздухе водяной пар достигнет насыщения.
f - Относительная влажность воздуха - влажноcть воздуха, измеренная на высоте 2 м над землей.
Te - Эффективная температура - температура, которую ощущает одетый по сезону человек в тени. Характеристика душности погоды. При расчете учитывается влияние влажности воздуха и скорости ветра на теплоощущения человека.
Tes - Эффективная температура на солнце - температура, которую ощущает человек, с поправкой на солнечный нагрев. Характеристика знойности погоды. Зависит от высоты солнца над горизонтом, облачности и скорости ветра. Ночью, в пасмурную погоду, а также при ветре 12 м/с и более поправка равна нулю.
P - Атмосферное давление - приведенное к уровню моря атмосферное давление.
Po - Атмосферное давление - измеренное на уровне метеостанции атмосферное давление.
Tmin - Минимальная температура - минимум температуры воздуха на высоте 2 м над землей.
Tmax - Максимальная температура - максимум температуры воздуха на высоте 2 м над землей.
R - Количество осадков - Количество выпавших осадков за период времени, мм. При наведении курсора мыши на число - период времени, за который выпало указанное количество осадков.
R24 - Количество осадков - Количество выпавших осадков за 24 часа, мм.
S - Снежный покров - Высота снежного покрова, см. При наведении курсора мыши на число - состояние снежного покрова и степень покрытия местности в баллах.